www.pogodaiklimat.ru

Погода и климат >> Архив погоды >> Узбекистан >> Шахрисабз


ПОГОДА в Шахрисабзе

  • Прогноз погоды в Шахрисабзе
  • Монитор погоды в Шахрисабзе

АРХИВ ПОГОДЫ в Шахрисабзе

Время (UTC), дата Ветер
(напр.,м/с)
 
Видим.   Явления Облачность Т
(С)
Тd
(С)
f
(%)
Тe
(С)
Тes
(С)
Комфортность P
(гПа)
Po
(гПа)
Тmin
(С)
Tmax
(С)
R
(мм)
R24
(мм)
S
(см)
18 13.09 СВ 3 н/о 8/0
[Ac cast Ci fib]
+17.8 +7.6 51 +18 +18 1013.8 942.6 +30.3
21 13.09 СВ 3 н/о 10/6 1000 м
[Cb cap Ci fib]
+17.2 +7.3 52 +17 +17 1013.0 941.7
00 14.09 СВ 3 н/о 10/5 1000 м
[Cb cap Ci fib]
+16.4 +7.4 55 +16 +16 1013.2 941.7
03 14.09 СВ 2 50 км 10/5 1000 м
[Cb cap Ac cast Ci fib]
+16.0 +6.5 53 +16 +17 1014.7 943.2
06 14.09 С 2 50 км 10/4 1000 м
[Cb cap Ci fib]
+27.6 +4.1 22 +26 +32 жарко 1013.3 944.3 +15.8
09 14.09 Ю 3 50 км 10/5 1000 м
[Cb cap Ci fib]
+29.0 +4.5 21 +27 +31 жарко 1012.7 944.1
12 14.09 В 3 50 км 10/5 1000 м
[Cb cap Ac cast Ci fib]
+28.4 +6.2 24 +27 +28 жарко 1012.2 943.5
15 14.09 СВ 2 н/о 8/4 1000 м
[Cb cap Ci fib]
+24.2 +8.8 37 +25 +25 комфорт 1013.6 943.9 +29.7
18 14.09 В 3 н/о 5/3 1000 м
[Cb cap Ci fib]
+19.6 +5.9 41 +20 +20 1015.7 944.7 +29.7
21 14.09 СВ 3 н/о 4/0
[Ci fib]
+18.1 +6.4 46 +18 +18 1016.3 944.9
00 15.09 В 3 н/о 3/0
[Ci fib]
+14.9 +6.7 58 +14 +14 1018.1 945.9
03 15.09 СВ 2 50 км 4/1 1000 м
[Cb cap Ci fib]
+15.5 +5.0 50 +16 +17 1018.7 946.6
06 15.09 Ю 3 50 км 3/1 1000 м
[Cu med, cong Ci fib]
+24.8 +4.8 27 +24 +33 комфорт 1016.2 946.4 +14.3
09 15.09 З 4 50 км 3/1 1000 м
[Cu med, cong Ci fib]
+26.4 +2.7 22 +25 +32 комфорт 1016.4 946.9
12 15.09 З 3 50 км 1/1 1000 м
[Cu med, cong]
+27.0 +4.0 23 +26 +27 жарко 1015.7 946.4
15 15.09 З 2 н/о ясно +19.3 +7.6 47 +21 +21 комфорт 1018.3 947.1 +27.4
18 15.09 СВ 2 н/о ясно +16.0 +6.7 54 +16 +16 1019.2 947.2 +27.4
21 15.09 С 2 н/о ясно +15.0 +5.3 52 +15 +15 1018.8 946.6
00 16.09 СВ 2 н/о 10/0
[]
+13.5 +5.0 56 +13 +13 1019.2 946.5
03 16.09 В 2 50 км ясно +14.3 +5.5 55 +14 +16 1019.7 947.3
06 16.09 ЮВ 2 50 км ясно +24.4 +4.3 27 +24 +35 комфорт 1018.1 948.1 +13.0
09 16.09 З 2 50 км ясно +26.4 +2.5 21 +25 +37 комфорт 1017.9 948.3
12 16.09 ЮЗ 2 50 км 9/4 1000 м
[Cb cap Ci fib]
+26.2 +3.8 24 +25 +26 комфорт 1017.8 948.2
15 16.09 В 2 н/о 4/0
[Ci fib]
+19.2 +7.4 46 +20 +20 1019.6 948.0 +27.2
18 16.09 В 2 н/о ясно +16.5 +5.0 46 +17 +17 1020.2 948.2 +27.2
00 17.09 СВ 2 н/о ясно +13.3 +4.6 56 +13 +13 1021.1 948.3
03 17.09 В 2 50 км ясно +14.6 +5.0 53 +14 +16 1020.1 947.7
09 17.09 З 2 50 км 1/1 1000 м
[Cu med, cong]
+28.7 +2.1 18 +27 +37 жарко 1014.8 945.9
12 17.09 ЮЗ 3 50 км 1/1 1000 м
[Cu med, cong]
+28.3 +5.1 23 +27 +29 жарко 1013.0 944.2
15 17.09 Ю 2 н/о ясно +21.0 +9.2 47 +23 +23 комфорт 1014.0 943.6 +29.5
18 17.09 СВ 2 н/о ясно +17.4 +7.3 51 +18 +18 1015.1 943.7 +29.5
21 17.09 СВ 2 н/о ясно +15.9 +6.5 54 +16 +16 1014.7 943.0
00 18.09 СВ 2 н/о ясно +14.7 +5.5 54 +15 +15 1014.0 942.0
03 18.09 СВ 2 50 км ясно +16.4 +5.1 47 +17 +19 1013.8 942.2
06 18.09 Ю 2 50 км ясно +29.2 +6.5 24 +28 +39 жарко 1011.2 942.8 +13.9
09 18.09 ЮЗ 2 50 км ясно +32.6 +2.9 15 +30 +41 жарко 1010.0 942.3
12 18.09 Ю 2 50 км 3/0
[Ci fib]
+33.4 +5.1 17 +31 +33 жарко 1009.4 942.0
15 18.09 В 1 н/о ясно +22.8 +9.3 42 +24 +24 комфорт 1013.5 943.5 +34.0
18 18.09 В 2 н/о ясно +20.4 +7.1 42 +22 +22 комфорт 1015.3 944.6 +34.0
21 18.09 СВ 2 н/о ясно +19.8 +4.0 35 +21 +21 комфорт 1014.4 943.5
00 19.09 С 2 н/о 1/1 1000 м
[Cb cap Ci fib]
+18.2 +2.9 36 +19 +19 1014.4 943.2
03 19.09 СВ 2 50 км 8/3 1000 м
[Cb cap Ci fib]
+18.4 +4.1 39 +19 +20 1015.9 944.6
06 19.09 50 км 8/3 1000 м
[Cu med, cong Ci fib]
+32.7 +7.0 20 1012.0 944.3 +17.4
09 19.09 СЗ 2 50 км 1/1 1000 м
[Cu med, cong]
+35.1 +5.0 15 +32 +42 жарко 1010.8 943.6
12 19.09 ЮЗ 2 50 км 1/1 1000 м
[Cu med, cong]
+34.1 +4.8 16 +32 +33 жарко 1010.5 943.1
15 19.09 Ю 2 н/о ясно +26.0 +10.5 38 +27 +27 жарко 1012.3 943.2 +35.8
18 19.09 СВ 3 н/о ясно +21.7 +8.2 42 +23 +23 комфорт 1013.9 943.6 +35.8
03 20.09 Ю 2 50 км ясно +20.7 +5.6 37 +22 +24 комфорт 1012.5 942.0

 

Местоположение метеостанции Шахрисабз (Кашкадарьинская область, Узбекистан): широта 39.05 долгота 66.83 высота над уровнем моря 622 м.

В архиве по умолчанию представлена погода в Шахрисабзе за последнюю неделю. Архивные данные за месяц целиком и за предыдущие месяцы, начиная с января 2011 года, Вы можете получить, выбрав интересующий диапазон дат из раскрывающегося списка и нажав кнопку "Ввод!".


*Определитесь, кто Вы:
робот инопланетянин человек

Внимание! Время в таблицах - всемирное. Для получения местного времени необходимо прибавить поправку, которая равна 5 ч.

Смотрите также архив погоды в соседних городах и на ближайших метеорологических станциях:

Погода в Минчукуре (Кашкадарьинская область, Узбекистан) (45 км)
Погода на Леднике Северцова (Кашкадарьинская область, Узбекистан) (59 км)
Погода в Самарканде (Самаркандская область, Узбекистан) (59 км)
Погода в Гузаре (Кашкадарьинская область, Узбекистан) (68 км)
Погода в Нурабаде (Самаркандская область, Узбекистан) (77 км)
Погода в Дагбите (Самаркандская область, Узбекистан) (78 км)
Погода в Дехканабаде (Сырдарьинская область, Узбекистан) (83 км)
Погода в Пенджикенте (Таджикистан) (84 км)
Погода в Самарканд аэропорту (Самаркандская область, Узбекистан) (85 км)
Погода в Акрабате (Узбекистан) (89 км)

Пояснения к столбцам:

Ветер - указаны скорость ветра в м/с - средняя за 10 мин, порывы в срок и между сроками (в фигурных скобках) и направление, откуда дует ветер: С - северный, СВ - северо-восточный, В - восточный, ЮВ - юго-восточный, Ю - южный, ЮЗ - юго-западный, З - западный, СЗ - северо-западный.
Видимость - горизонтальная дальность видимости в метрах или километрах. При видимости от 1 до 10 км при отсутствии осадков обычно наблюдается дымка, при ухудшении видимости до 1 км и менее - туман. В сухую погоду видимость может ухудшаться дымом, пылью или мглою.
Явления - указаны атмосферные явления, наблюдавшиеся в срок или в последний час перед сроком; фигурными скобками обозначены явления, наблюдавшиеся между сроками (за 1-3 часа до срока); квадратными скобками обозначены град или гололедные отложения с указанием их диаметра в мм.
Облачность - указаны через наклонную черту общая и нижняя облачность в баллах и высота нижней границы облаков в метрах; квадратными скобками обозначены формы облаков: Ci - перистые, Cs - перисто-слоистые, Cc - перисто-кучевые, Ac - высококучевые, As - высокослоистые, Sc - слоисто-кучевые, Ns - слоисто-дождевые, Cu - кучевые, Cb - кучево-дождевые. Подробнее классификацию облаков см. в Атласе облаков (PDF).
T - Температура воздуха - температура, измеренная на высоте 2 м над землей.
Td - Температура точки росы - температура, при понижении до которой содержащийся в воздухе водяной пар достигнет насыщения.
f - Относительная влажность воздуха - влажноcть воздуха, измеренная на высоте 2 м над землей.
Te - Эффективная температура - температура, которую ощущает одетый по сезону человек в тени. Характеристика душности погоды. При расчете учитывается влияние влажности воздуха и скорости ветра на теплоощущения человека.
Tes - Эффективная температура на солнце - температура, которую ощущает человек, с поправкой на солнечный нагрев. Характеристика знойности погоды. Зависит от высоты солнца над горизонтом, облачности и скорости ветра. Ночью, в пасмурную погоду, а также при ветре 12 м/с и более поправка равна нулю.
P - Атмосферное давление - приведенное к уровню моря атмосферное давление.
Po - Атмосферное давление - измеренное на уровне метеостанции атмосферное давление.
Tmin - Минимальная температура - минимум температуры воздуха на высоте 2 м над землей.
Tmax - Максимальная температура - максимум температуры воздуха на высоте 2 м над землей.
R - Количество осадков - Количество выпавших осадков за период времени, мм. При наведении курсора мыши на число - период времени, за который выпало указанное количество осадков.
R24 - Количество осадков - Количество выпавших осадков за 24 часа, мм.
S - Снежный покров - Высота снежного покрова, см. При наведении курсора мыши на число - состояние снежного покрова и степень покрытия местности в баллах.